Tracking 20092 objects as of 14-Dec-2019
HD Live streaming from Space Station
objects crossing your sky now

FENGYUN 1C DEB

Track FENGYUN 1C DEB now!
10-day predictions


NORAD ID: 30477
Int'l Code: 1999-025AGQ
Perigee: 860.8 km
Apogee: 1,533.0 km
Inclination: 99.4 °
Period: 109.2 minutes
Semi major axis: 7567 km
RCS: 0.0105 m2 (small)
Launch date: May 10, 1999
Source: People's Republic of China (PRC)
Launch site: Taiyaun Space Center, China (TSC)

Note: This is SATELLITE DEBRIS
aabbcc
Your satellite tracking list
Your tracking list is empty




NASA's NSSDC Master Catalog

Two Line Element Set (TLE):
1 30477U 99025AGQ 19347.71709868 +.00001013 +00000-0 +15936-2 0  9997
2 30477 099.4205 256.9639 0444099 109.3466 284.5211 13.18682937618052
Source of the keplerian elements: AFSPC